Regional Weather Roundup
Issued by NWS Jackson, KY

Home | Current Version | Previous Version | Graphics & Text | Print | Product List | Glossary On
Versions: 1 2 3 4 5 6 7 8 9 10 11 12 13 14 15 16 17 18 19 20 21 22 23 24 25 26 27 28 29 30 31 32 33 34 35 36 37 38 39 40 41 42 43 44 45 46 47 48 49 50
000
ASUS43 KJKL 201210
RWRJKL

EAST KENTUCKY HOURLY WEATHER ROUNDUP
NATIONAL WEATHER SERVICE JACKSON KY
800 AM EDT WED SEP 20 2017

NOTE: "FAIR" INDICATES FEW OR NO CLOUDS BELOW 12,000 FEET WITH
NO SIGNIFICANT WEATHER AND/OR OBSTRUCTIONS TO VISIBILITY.

* THESE REPORTS ARE NOT UNDER NWS QUALITY CONTROL AND MAY NOT
  REPORT WEATHER SUCH AS PRECIPITATION AND FOG.

KYZ079-080-083-085-087-088-110-112-115-119-120-201300
...EASTERN KENTUCKY...

CITY           SKY/WX    TMP DP  RH WIND       PRES   REMARKS
JACKSON        FOG       65  65 100 CALM      30.07R VSB<1/4
6HR MIN TEMP:  65; 6HR MAX TEMP:  67;

LONDON         FOG       61  60  97 CALM      30.06R VSB 1/4
6HR MIN TEMP:  61; 6HR MAX TEMP:  65;

SOMERSET*      CLEAR     61  61 100 CALM      30.07R FOG
MONTICELLO*    CLEAR     59  59 100 W9        30.07R
6HR MIN TEMP:  57; 6HR MAX TEMP:  63;

WILLIAMSBURG*  CLOUDY    63  63 100 CALM      30.07R VSB<1/4
MIDDLESBORO*   CLOUDY    62  62 100 CALM      30.09R
6HR MIN TEMP:  61; 6HR MAX TEMP:  64;

HARLAN APT*    CLOUDY    63  61  94 CALM      30.10R VSB 3/4
PIKE CO APT*   CLOUDY    64  64 100 CALM      30.07R FOG
BIG SANDY APT* FOG       65  65 100 S3        30.06R VSB<1/4
6HR MIN TEMP:  64; 6HR MAX TEMP:  65;

MOREHEAD APT*  SUNNY     64  63  94 CALM      30.06R FOG
$$

KYZ035-036-041-042-044-050-067-078-099-201300
...CENTRAL KENTUCKY...

CITY           SKY/WX    TMP DP  RH WIND       PRES   REMARKS
MT STERLING*   FOG       63  63 100 CALM      30.06R VSB<1/4
FLEMING/MASON* FOG       64  64 100 CALM      30.06R VSB 1/4
DANVILLE*      CLOUDY    63  63 100 S5        30.06R FOG
LEXINGTON      PTCLDY    66  64  93 SE3       30.05R FOG
6HR MIN TEMP:  63; 6HR MAX TEMP:  67;

FRANKFORT      PTCLDY    61  59  93 CALM      30.03R FOG
6HR MIN TEMP:  60; 6HR MAX TEMP:  65;

LOUISVILLE     PTCLDY    67  66  97 CALM      30.01R
6HR MIN TEMP:  66; 6HR MAX TEMP:  70;

LEBANON*         N/A     66  66 100 S6        30.04R
GLASGOW*       CLEAR    N/A N/A N/A E3        30.02R FOG
BOWLING GREEN  CLEAR     65  65 100 CALM      30.02R FOG
6HR MIN TEMP:  65; 6HR MAX TEMP:  68;

$$

KYZ091>093-OHZ055-061-077-WVZ005-015-034-035-042-201300
...SOUTHERN OHIO/WEST VIRGINIA...

CITY           SKY/WX    TMP DP  RH WIND       PRES   REMARKS
COVINGTON      PTCLDY    65  65 100 CALM      30.03R FOG
COLUMBUS       CLOUDY    69  67  93 CALM      30.02R
DAYTON         FOG       65  65 100 S3        30.04S VSB 1
WILMINGTON     FOG       63  61  93 CALM      30.04R VSB<1/4
HUNTINGTON     MOCLDY    67  65  93 SW3       30.03R FOG
CHARLESTON     MOCLDY    64  63  96 CALM      30.04R
PINEVILLE*     MOCLDY    59  58  96 MISG      30.14R FOG
BECKLEY        PTCLDY    62  61  96 CALM      30.11R FOG
BLUEFIELD      PTCLDY    62  58  86 SW6       30.13R
LOGAN CO APT*  FOG       64  64 100 CALM      30.07R VSB 1
$$

VAZ002-007-008-TNZ017-027-036-066-071-201300
...SOUTHWEST VIRGINIA/EAST TENNESSEE...

CITY           SKY/WX    TMP DP  RH WIND       PRES   REMARKS
WISE*          CLEAR     63  63 100 CALM      30.14R
JONESVILLE*    FOG       63  63 100 CALM      30.11R VSB<1/4
ABINGDON*      CLEAR     61  61 100 CALM      30.11S FOG
BRISTOL        PTCLDY    59  59 100 CALM      30.10R
MORRISTOWN*    SUNNY     63  61  94 CALM      30.07R
SEVIERVILLE*   SUNNY     57  57 100 CALM      30.07R
KNOXVILLE      PTCLDY    62  61  96 CALM      30.06R FOG
LAFOLLETTE*    FOG       63  63 100 CALM      30.10R VSB 0
OAK RIDGE      FOG       62  61  96 CALM      30.08R VSB 1/4
CROSSVILLE     PTCLDY    60  60 100 CALM      30.10R FOG
NASHVILLE      PTCLDY    67  65  93 CALM      30.02R
$$

...KEY TO REMARKS...
VSB - VISIBILITY IN MILES
WCI - WIND CHILL INDEX
HX  - HEAT INDEX

$$



USA.gov is the U.S. government's official web portal to all federal, state and local government web resources and services.